Вернуться в каталог

CZ-6A DEB

АктивенPO
NORAD 61098·DEBRIS·🇨🇳 China

Запущен Aug 6, 2024 с Taiyuan Satellite Launch Center

Loading…

Ближайшие Пролёты (ближайшие 24 часа)

TLE

СвежийSource: Space-Track

Эпоха: Sep 14, 2026, 11:32 UTC

1 61098U 24140NQ  26257.48118471  .00011235  00000-0  34385-2 0  9998
2 61098  89.0619 269.8068 0060758 207.8168 151.9781 14.40643926106509

Отслеживайте CZ-6A DEB в реальном времени с AllMySat

Download on the App Store